| time (UTC) | temp F | wind direction | speed MPH | gust MPH | rain 1hr in | rain 24hr in | rain mn in | humidity % | barometer mb |
| 20260507063054 | 38 | 0 | 0.0 | 1.0 | 0.00 | 0.00 | 0.00 | 61 | 1024.5 |
| 20260507061550 | 39 | 0 | 0.0 | 0.0 | 0.00 | 0.00 | 0.00 | 61 | 1024.4 |
| 20260507060050 | 39 | 0 | 0.0 | 0.0 | 0.00 | 0.00 | 0.00 | 59 | 1024.3 |
| 20260507054552 | 40 | 0 | 0.0 | 0.0 | 0.00 | 0.00 | 0.00 | 59 | 1024.4 |
| 20260507053048 | 40 | 0 | 0.0 | 0.0 | 0.00 | 0.00 | 0.00 | 59 | 1024.2 |
| 20260507051552 | 40 | 0 | 0.0 | 1.0 | 0.00 | 0.00 | 0.00 | 58 | 1024.1 |
| 20260507050051 | 41 | 0 | 0.0 | 1.0 | 0.00 | 0.00 | 0.00 | 58 | 1024.2 |
| 20260507044549 | 41 | 0 | 0.0 | 0.0 | 0.00 | 0.00 | 0.00 | 57 | 1024.1 |
| 20260507043046 | 42 | 0 | 0.0 | 0.0 | 0.00 | 0.00 | 0.00 | 56 | 1024.0 |
| 20260507041545 | 43 | 0 | 0.0 | 1.0 | 0.00 | 0.00 | 0.00 | 55 | 1024.1 |
| 20260507040058 | 44 | 70 | 0.0 | 1.0 | 0.00 | 0.00 | 0.00 | 54 | 1023.9 |
| 20260507034557 | 45 | 0 | 0.0 | 1.0 | 0.00 | 0.00 | 0.00 | 52 | 1023.9 |
| 20260507033049 | 46 | 70 | 0.0 | 1.0 | 0.00 | 0.00 | 0.00 | 51 | 1023.8 |
| 20260507031548 | 48 | 0 | 0.0 | 1.0 | 0.00 | 0.00 | 0.00 | 49 | 1023.4 |
| 20260507030053 | 50 | 0 | 0.0 | 1.0 | 0.00 | 0.00 | 0.00 | 46 | 1023.1 |
| 20260507024545 | 52 | 0 | 0.0 | 1.0 | 0.00 | 0.00 | 0.00 | 42 | 1023.1 |
| 20260507023045 | 54 | 0 | 0.0 | 1.0 | 0.00 | 0.00 | 0.00 | 40 | 1023.0 |
| 20260507021552 | 55 | 0 | 0.0 | 4.0 | 0.00 | 0.00 | 0.00 | 40 | 1022.8 |
| 20260507020057 | 56 | 82 | 0.0 | 1.0 | 0.00 | 0.00 | 0.00 | 38 | 1022.7 |
| 20260507014606 | 57 | 0 | 0.0 | 5.0 | 0.00 | 0.00 | 0.00 | 36 | 1022.6 |
| 20260507013053 | 58 | 68 | 0.0 | 3.0 | 0.00 | 0.00 | 0.00 | 34 | 1022.6 |
| 20260507011601 | 59 | 137 | 0.0 | 5.0 | 0.00 | 0.00 | 0.00 | 32 | 1022.6 |
| 20260507010047 | 61 | 0 | 0.0 | 3.0 | 0.00 | 0.00 | 0.00 | 30 | 1022.3 |
| 20260507004550 | 61 | 24 | 1.0 | 5.0 | 0.00 | 0.00 | 0.00 | 30 | 1022.4 |
| 20260507003048 | 60 | 330 | 1.0 | 6.0 | 0.00 | 0.00 | 0.00 | 31 | 1022.2 |
| 20260507001605 | 61 | 23 | 1.0 | 6.0 | 0.00 | 0.00 | 0.00 | 32 | 1022.3 |
| 20260507000059 | 60 | 78 | 1.0 | 6.0 | 0.00 | 0.00 | 0.00 | 35 | 1022.1 |
| 20260506234552 | 60 | 124 | 0.0 | 4.0 | 0.00 | 0.00 | 0.00 | 37 | 1022.0 |
| 20260506233052 | 60 | 60 | 3.0 | 8.0 | 0.00 | 0.00 | 0.00 | 38 | 1021.9 |
| 20260506231552 | 60 | 260 | 1.0 | 5.0 | 0.00 | 0.00 | 0.00 | 39 | 1021.9 |
| 20260506230053 | 61 | 0 | 0.0 | 4.0 | 0.00 | 0.00 | 0.00 | 38 | 1021.9 |
| 20260506224550 | 61 | 270 | 1.0 | 6.0 | 0.00 | 0.00 | 0.00 | 38 | 1021.9 |
| 20260506223048 | 62 | 129 | 2.0 | 6.0 | 0.00 | 0.00 | 0.00 | 35 | 1022.0 |
| 20260506221546 | 61 | 270 | 2.0 | 7.0 | 0.00 | 0.00 | 0.00 | 39 | 1022.3 |
| 20260506220058 | 60 | 262 | 0.0 | 7.0 | 0.00 | 0.00 | 0.00 | 39 | 1022.4 |
| 20260506214546 | 61 | 280 | 2.0 | 10.0 | 0.00 | 0.00 | 0.00 | 37 | 1022.5 |
| 20260506213057 | 62 | 0 | 2.0 | 7.0 | 0.00 | 0.00 | 0.00 | 35 | 1022.4 |
| 20260506211551 | 62 | 356 | 3.0 | 7.0 | 0.00 | 0.00 | 0.00 | 37 | 1022.5 |
| 20260506210107 | 61 | 115 | 3.0 | 8.0 | 0.00 | 0.00 | 0.00 | 38 | 1022.2 |
| 20260506204553 | 61 | 129 | 2.0 | 8.0 | 0.00 | 0.00 | 0.00 | 38 | 1022.3 |
| 20260506203138 | 61 | 75 | 2.0 | 9.0 | 0.00 | 0.00 | 0.00 | 38 | 1022.2 |
| 20260506201549 | 61 | 176 | 1.0 | 7.0 | 0.00 | 0.00 | 0.00 | 38 | 1022.2 |
| 20260506200054 | 61 | 113 | 3.0 | 5.0 | 0.00 | 0.00 | 0.00 | 38 | 1022.4 |
| 20260506194551 | 61 | 56 | 1.0 | 8.0 | 0.00 | 0.00 | 0.00 | 37 | 1022.5 |
| 20260506193048 | 61 | 146 | 2.0 | 7.0 | 0.00 | 0.00 | 0.00 | 38 | 1022.4 |
| 20260506191553 | 61 | 70 | 3.0 | 6.0 | 0.00 | 0.00 | 0.00 | 38 | 1022.4 |
| 20260506190055 | 61 | 295 | 1.0 | 6.0 | 0.00 | 0.00 | 0.00 | 40 | 1022.4 |
| 20260506184558 | 60 | 115 | 1.0 | 5.0 | 0.00 | 0.00 | 0.00 | 41 | 1022.5 |
| 20260506183049 | 60 | 65 | 2.0 | 8.0 | 0.00 | 0.00 | 0.00 | 41 | 1022.5 |
| 20260506181546 | 59 | 139 | 5.0 | 11.0 | 0.00 | 0.00 | 0.00 | 40 | 1022.4 |
| 20260506180051 | 60 | 136 | 2.0 | 7.0 | 0.00 | 0.00 | 0.00 | 40 | 1022.2 |
| 20260506174559 | 58 | 0 | 2.0 | 8.0 | 0.00 | 0.00 | 0.00 | 41 | 1022.0 |
| 20260506173056 | 58 | 141 | 1.0 | 5.0 | 0.00 | 0.00 | 0.00 | 43 | 1021.8 |
| 20260506171557 | 57 | 79 | 2.0 | 7.0 | 0.00 | 0.00 | 0.00 | 43 | 1021.8 |
| 20260506170051 | 58 | 0 | 0.0 | 7.0 | 0.00 | 0.00 | 0.00 | 43 | 1021.6 |
| 20260506164553 | 57 | 285 | 1.0 | 5.0 | 0.00 | 0.00 | 0.00 | 41 | 1021.5 |
| 20260506163109 | 56 | 282 | 2.0 | 5.0 | 0.00 | 0.00 | 0.00 | 41 | 1021.4 |
| 20260506161546 | 56 | 359 | 0.0 | 5.0 | 0.00 | 0.00 | 0.00 | 42 | 1021.4 |
| 20260506160051 | 55 | 0 | 1.0 | 3.0 | 0.00 | 0.00 | 0.00 | 43 | 1021.1 |
| 20260506154554 | 53 | 124 | 1.0 | 4.0 | 0.00 | 0.00 | 0.00 | 46 | 1020.9 |
| 20260506153052 | 50 | 120 | 0.0 | 2.0 | 0.00 | 0.00 | 0.00 | 51 | 1020.9 |
| 20260506151548 | 43 | 0 | 0.0 | 1.0 | 0.00 | 0.00 | 0.00 | 74 | 1021.1 |
| 20260506150048 | 38 | 0 | 0.0 | 1.0 | 0.00 | 0.00 | 0.00 | 80 | 1021.1 |
| 20260506144551 | 33 | 0 | 0.0 | 1.0 | 0.00 | 0.00 | 0.00 | 85 | 1021.0 |
| 20260506143051 | 31 | 0 | 0.0 | 1.0 | 0.00 | 0.00 | 0.00 | 86 | 1020.9 |
| 20260506141548 | 30 | 0 | 0.0 | 1.0 | 0.00 | 0.00 | 0.00 | 87 | 1020.8 |
| 20260506140049 | 29 | 0 | 0.0 | 1.0 | 0.00 | 0.00 | 0.00 | 88 | 1020.6 |
| 20260506134552 | 28 | 0 | 0.0 | 0.0 | 0.00 | 0.00 | 0.00 | 89 | 1020.4 |
| 20260506133047 | 28 | 0 | 0.0 | 0.0 | 0.00 | 0.00 | 0.00 | 89 | 1020.1 |
| 20260506131556 | 27 | 0 | 0.0 | 0.0 | 0.00 | 0.00 | 0.00 | 89 | 1019.9 |
| 20260506130046 | 27 | 0 | 0.0 | 0.0 | 0.00 | 0.00 | 0.00 | 89 | 1019.9 |
| 20260506124546 | 27 | 0 | 0.0 | 0.0 | 0.00 | 0.00 | 0.00 | 89 | 1019.6 |
| 20260506123055 | 27 | 0 | 0.0 | 0.0 | 0.00 | 0.00 | 0.00 | 89 | 1019.4 |
| 20260506121559 | 27 | 0 | 0.0 | 0.0 | 0.00 | 0.00 | 0.00 | 89 | 1019.2 |
| 20260506120048 | 27 | 0 | 0.0 | 0.0 | 0.00 | 0.00 | 0.00 | 89 | 1019.1 |
| 20260506114547 | 27 | 0 | 0.0 | 0.0 | 0.00 | 0.00 | 0.00 | 89 | 1018.9 |
| 20260506113050 | 27 | 0 | 0.0 | 0.0 | 0.00 | 0.00 | 0.00 | 89 | 1018.9 |
| 20260506111552 | 27 | 0 | 0.0 | 0.0 | 0.00 | 0.00 | 0.00 | 90 | 1018.8 |
| 20260506110101 | 27 | 0 | 0.0 | 0.0 | 0.00 | 0.00 | 0.00 | 89 | 1018.8 |
| 20260506104550 | 27 | 0 | 0.0 | 0.0 | 0.00 | 0.00 | 0.00 | 90 | 1018.8 |
| 20260506103051 | 27 | 0 | 0.0 | 0.0 | 0.00 | 0.00 | 0.00 | 90 | 1018.6 |
| 20260506101603 | 27 | 0 | 0.0 | 0.0 | 0.00 | 0.00 | 0.00 | 90 | 1018.6 |
| 20260506100051 | 28 | 0 | 0.0 | 0.0 | 0.00 | 0.00 | 0.00 | 90 | 1018.6 |
| 20260506094556 | 28 | 0 | 0.0 | 0.0 | 0.00 | 0.00 | 0.00 | 90 | 1018.6 |
| 20260506093057 | 28 | 0 | 0.0 | 0.0 | 0.00 | 0.00 | 0.00 | 90 | 1018.6 |
| 20260506091552 | 28 | 0 | 0.0 | 0.0 | 0.00 | 0.00 | 0.00 | 90 | 1018.6 |
| 20260506084611 | 28 | 0 | 0.0 | 0.0 | 0.00 | 0.00 | 0.00 | 90 | 1018.7 |
| 20260506083053 | 28 | 0 | 0.0 | 0.0 | 0.00 | 0.00 | 0.00 | 90 | 1018.7 |
| 20260506081552 | 28 | 0 | 0.0 | 0.0 | 0.00 | 0.00 | 0.00 | 89 | 1018.6 |
| 20260506073047 | 29 | 0 | 0.0 | 0.0 | 0.00 | 0.00 | 0.00 | 89 | 1018.9 |
| 20260506071551 | 29 | 0 | 0.0 | 0.0 | 0.00 | 0.00 | 0.00 | 87 | 1018.7 |